Miscellaneous Local Product
Issued by NWS Hastings, NE

Home | Current Version | Previous Version | Text Only | Print | Product List | Glossary Off
Versions: 1 2 3 4 5 6 7 8 9 10 11 12 13 14 15 16 17 18 19 20 21 22 23 24 25 26 27 28 29 30 31 32 33 34 35 36 37 38 39 40 41 42 43 44 45 46 47 48 49 50

000
AXUS43 KGID 161502
MISGRI

GID CWA HOURLY WEATHER ROUNDUP
NATIONAL WEATHER SERVICE HASTINGS NE
1000 AM CDT TUE SEP 16 2014

NOTE: "FAIR" INDICATES FEW OR NO CLOUDS BELOW 12,000 FEET WITH NO
SIGNIFICANT WEATHER AND/OR OBSTRUCTIONS TO VISIBILITY.

...SOUTH CENTRAL NEBRASKA...

CITY           SKY/WX    TMP DP  RH WIND       PRES   REMARKS
GRAND ISLAND     N/A     56  47  71 S14       30.20S
HASTINGS       SUNNY     54  45  71 S13       30.19F
KEARNEY        MOSUNNY   54  48  82 SE15      30.20R
ORD            SUNNY     54  48  80 S12       30.16S
YORK           LGT RAIN  52  46  82 S12       30.22S
AURORA         SUNNY     52  46  78 S10G16    30.20F
LEXINGTON      PTSUNNY   54  50  86 S12       30.18R
HOLDREGE       MOSUNNY   52  48  87 S14G20    30.16F
HEBRON         SUNNY     54  47  75 S8        30.23F

...NEBRASKA PANHANDLE...

CITY           SKY/WX    TMP DP  RH WIND       PRES   REMARKS
CHADRON        SUNNY     59  50  72 W9        30.06S
ALLIANCE       SUNNY     59  52  77 W8        30.07F
SCOTTSBLUFF    SUNNY     56  51  84 W7        30.10S
SIDNEY         SUNNY     59  52  77 SW12      30.11S

...WESTERN AND NORTH CENTRAL NEBRASKA...

CITY           SKY/WX    TMP DP  RH WIND       PRES   REMARKS
VALENTINE      SUNNY     59  48  67 S12       30.06F
AINSWORTH      SUNNY     54  45  72 S15       30.07F
ONEILL         SUNNY     55  48  79 S15G21    30.14F
BROKEN BOW     SUNNY     56  49  77 S16G24    30.14F
IMPERIAL       MOSUNNY   61  53  75 S16G25    30.11F
NORTH PLATTE   MOSUNNY   57  50  77 S13       30.10F
MCCOOK         CLOUDY    58  51  78 S12G23    30.15F

...EASTERN NEBRASKA...

CITY           SKY/WX    TMP DP  RH WIND       PRES   REMARKS
NORFOLK        SUNNY     55  47  74 S12       30.19S
SO SIOUX CITY  SUNNY     53  48  83 S5        30.21F
TEKAMAH        SUNNY     54  49  83 SE5       30.22F
ALBION         SUNNY     51  45  79 S9        30.19F
OMAHA EPPLEY   SUNNY     54  48  80 S8        30.24F
OFFUTT AFB     SUNNY     52  52 100 SE2       30.23F
MILLARD        SUNNY     54  49  82 SE3       30.23S
LINCOLN        SUNNY     55  48  77 S7        30.24S
NEBRASKA CITY  SUNNY     53  47  80 S7        30.25R
BEATRICE       SUNNY     54  47  76 SE6       30.24S
FALLS CITY     SUNNY     55  49  80 SE6       30.24S

...NORTHERN KANSAS...

CITY           SKY/WX    TMP DP  RH WIND       PRES   REMARKS
GOODLAND       PTSUNNY   60  53  77 SW15      30.16F
HILL CITY      CLOUDY    56  50  80 S5        30.20F
NORTON         CLOUDY    54  46  76 SE14      30.17F
PHILLIPSBURG   CLOUDY    54  50  87 SE6       30.20F
SMITH CENTER   SUNNY     55  48  76 SE13      30.20F
BELOIT         SUNNY     57  52  82 SE3       30.21F
HAYS           CLOUDY    55  46  71 SE8       30.21S
RUSSELL        CLOUDY    55  51  86 SE8       30.21F
CONCORDIA      SUNNY     57  51  80 S10       30.22F
SALINA         CLOUDY    56  50  80 SE9       30.23F
TOPEKA         SUNNY     58  52  80 E6        30.25S



USA.gov is the U.S. government's official web portal to all federal, state and local government web resources and services.